DW2373 Thessaloniki GR current weather conditions

sailwx.info

Wind from 077 at 0 knots gusting 4

Air temperature 3.9° C
Dewpoint -7.0° C

Last reported at 2016-Feb-07 00:03 UTC.
Time now 2016-Feb-07 01:26 UTC

Location: N 40°31' E 022°58'.
View on Google Maps.

See reports from other nearby stations

  
Tides and Currents Weather Stations Pressure Air Temp Water Temp Dewpoint Dewpoint Depression Visibility Wind Speed Wind Dir Waves Ship Positions
date/time (UTC)wind fromknots sea level pressurealtimeterstation pressurevisibilityair tempwater tempwave heightnotes
2016-Feb-07 00:03 077 0 gusting 4 3.9
2016-Feb-06 23:03 055 0 gusting 4 4.4
2016-Feb-06 22:03 062 1 gusting 4 5.0
2016-Feb-06 21:03 061 0 gusting 4 5.0
2016-Feb-06 20:03 082 1 gusting 2 5.6
2016-Feb-06 19:03 151 1 gusting 6 6.7
2016-Feb-06 18:03 045 1 gusting 5 7.2
2016-Feb-06 17:03 292 0 gusting 6 8.3
2016-Feb-06 16:03 048 2 gusting 11 9.4
2016-Feb-06 15:03 338 4 gusting 10 11.1
2016-Feb-06 14:03 333 3 gusting 13 11.1
2016-Feb-06 13:03 310 6 gusting 12 10.6
2016-Feb-06 12:03 298 6 gusting 15 10.0
2016-Feb-06 11:03 003 5 gusting 12 9.4
2016-Feb-06 10:03 002 4 gusting 10 8.9
2016-Feb-06 09:03 022 2 gusting 8 7.2
2016-Feb-06 08:03 354 2 gusting 11 5.6
2016-Feb-06 07:03 322 3 gusting 7 4.4
2016-Feb-06 06:03 335 3 gusting 6 3.3
2016-Feb-06 05:03 281 1 gusting 8 3.3
2016-Feb-06 04:03 311 1 gusting 7 3.3
2016-Feb-06 03:03 327 4 gusting 8 3.9
2016-Feb-06 02:03 333 1 gusting 8 3.9
2016-Feb-06 01:03 320 4 gusting 11 3.9
2016-Feb-06 00:03 4.4
2016-Feb-05 23:03 090 2 gusting 6 4.4
2016-Feb-05 22:03 016 2 gusting 7 5.0
2016-Feb-05 21:03 357 3 gusting 13 6.1
2016-Feb-05 20:03 036 4 gusting 12 6.1
2016-Feb-05 19:03 307 5 gusting 12 6.7
2016-Feb-05 18:03 002 5 gusting 12 6.7
2016-Feb-05 17:03 316 4 gusting 11 7.2
2016-Feb-05 16:03 338 6 gusting 12 7.2
2016-Feb-05 15:03 322 6 gusting 13 6.7
2016-Feb-05 14:03 315 7 gusting 11 6.7
2016-Feb-05 13:03 323 2 gusting 13 6.1
2016-Feb-05 12:03 5.0
2016-Feb-05 11:03 292 8 gusting 13 4.4
2016-Feb-05 10:03 276 4 gusting 8 4.4
2016-Feb-05 09:03 315 4 gusting 12 4.4
2016-Feb-05 08:03 327 7 gusting 13 5.0
2016-Feb-05 07:03 330 5 gusting 12 5.6
2016-Feb-05 06:03 321 5 gusting 13 5.6
2016-Feb-05 05:03 336 6 gusting 18 5.6
2016-Feb-05 04:03 352 4 gusting 15 5.6
2016-Feb-05 03:03 317 4 gusting 17 5.6
2016-Feb-05 02:03 346 4 gusting 18 6.1
2016-Feb-05 01:03 327 5 gusting 19 6.1